Portada
METAR-TAF:

METAR-TAF

Aeroports :

East Hampton Airport

East Hampton, Nova York, Estats Units d'Amèrica

latitud: 40-57-34N, longitud: 072-15-07W, altitud: 17 m

Observació

L'informe es va fer fa 18 minuts, a les 20:35 UTC
Vent 5 kt del Nord-Oest
Temperatura 7°C
Humitat 76%
Pressió 1009 hPa
Visibilitat: 16.1 km
Cel cobert a una alçada de 1800 ft

METAR: KHTO 192035Z AUTO 31005KT 10SM OVC018 07/03 A2979 RMK AO2 T00660026

Hora: 15:53 (20:53 UTC)


TAF: manca

Observacions i pronòstics meteorològics de més de 4000 aeroports (METAR i TAF).

Les estacions disponibles són els punts grocs i vermells al mapa.

Posi el ratolí al punt desitjat per veure el nom de l'estació.

Feu clic per veure les observacions i els pronòstics meteorològics.

Per canviar el mapa: feu clic els botons verds amb una creu de color negre per apropar; al botó verd amb un guió per allunyar la imatge; o en les fletxes verdes per a mapes adjacents.


METAR-TAF: